WXM80 ListenWXM80 Stop

You find our weather info also at:

UK Metoffice

WeatherCloud

Weather Underground

Northeastern Weather Network

AWEKAS

Citizen Weather Observer Program (CWOP)

HAMweather, WeatherForYou, PWS Weather


Weather Underground History page Text

Daily Summary for April 14, 2016 Units:  English    Metric   Both
« Previous Day
Next Day »
Daily Weekly Monthly Yearly Custom
  High: Low: Average:
Temperature: 59.7 °F 34.6 °F 46.5 °F
Dew Point: 41.3 °F 29.3 °F 34.4 °F
Humidity: 96 % 33 % 66 %
Wind Speed: 9.9 mph 0.0 mph 2.5 mph
Wind Gust: 17.3 mph - -
Wind:- - East
Pressure: 30.38 in 30.27 in -
Precipitation: 0.00 in    
Historical Graphs
 
 
Tabular Data for April 14, 2016
Time Temperature Dew Point Pressure Wind Wind Speed Wind Gust Humidity Rainfall Rate (Hourly)
00:02 41.4 °F 35.4 °F 30.30 in Calm     79 % 0.00 in
00:07 41.3 °F 35.3 °F 30.30 in Calm     79 % 0.00 in
00:12 41.2 °F 35.2 °F 30.30 in Calm     79 % 0.00 in
00:17 41.0 °F 35.0 °F 30.30 in Calm   1.2 mph 79 % 0.00 in
00:22 40.9 °F 35.2 °F 30.30 in SW 0.1 mph 1.2 mph 80 % 0.00 in
00:28 40.7 °F 35.0 °F 30.30 in Calm   1.2 mph 80 % 0.00 in
00:33 40.6 °F 34.9 °F 30.30 in Calm   1.2 mph 80 % 0.00 in
00:38 40.6 °F 35.2 °F 30.30 in Calm     81 % 0.00 in
00:43 40.5 °F 35.1 °F 30.30 in Calm     81 % 0.00 in
00:48 40.4 °F 35.0 °F 30.30 in Calm     81 % 0.00 in
00:53 40.3 °F 34.9 °F 30.30 in Calm     81 % 0.00 in
00:58 40.2 °F 35.1 °F 30.30 in SW 0.2 mph 1.2 mph 82 % 0.00 in
01:03 40.1 °F 35.0 °F 30.30 in Calm     82 % 0.00 in
01:08 40.0 °F 34.9 °F 30.30 in Calm     82 % 0.00 in
01:13 39.9 °F 34.9 °F 30.29 in Calm     82 % 0.00 in
01:19 39.9 °F 35.2 °F 30.29 in Calm   1.2 mph 83 % 0.00 in
01:24 39.8 °F 35.1 °F 30.29 in Calm     83 % 0.00 in
01:29 39.7 °F 35.0 °F 30.29 in Calm     83 % 0.00 in
01:34 39.5 °F 34.8 °F 30.29 in Calm     83 % 0.00 in
01:39 39.4 °F 34.7 °F 30.29 in Calm     83 % 0.00 in
01:44 39.3 °F 34.6 °F 30.29 in Calm     83 % 0.00 in
01:49 39.2 °F 34.5 °F 30.28 in Calm     83 % 0.00 in
01:54 39.1 °F 34.4 °F 30.28 in Calm     83 % 0.00 in
01:59 38.8 °F 34.1 °F 30.28 in Calm     83 % 0.00 in
02:04 38.7 °F 34.3 °F 30.28 in Calm     84 % 0.00 in
02:10 38.5 °F 34.1 °F 30.28 in Calm     84 % 0.00 in
02:15 38.4 °F 34.0 °F 30.29 in Calm     84 % 0.00 in
02:20 38.2 °F 33.8 °F 30.28 in Calm     84 % 0.00 in
02:25 38.0 °F 33.6 °F 30.28 in Calm     84 % 0.00 in
02:30 37.9 °F 33.8 °F 30.28 in Calm     85 % 0.00 in
02:35 37.7 °F 33.6 °F 30.28 in Calm     85 % 0.00 in
02:40 37.6 °F 33.5 °F 30.28 in Calm     85 % 0.00 in
02:45 37.5 °F 33.7 °F 30.28 in Calm     86 % 0.00 in
02:50 37.4 °F 33.6 °F 30.28 in Calm     86 % 0.00 in
02:55 37.3 °F 33.5 °F 30.27 in Calm     86 % 0.00 in
03:01 37.2 °F 33.4 °F 30.28 in Calm     86 % 0.00 in
03:06 37.1 °F 33.6 °F 30.28 in Calm     87 % 0.00 in
03:11 37.1 °F 33.6 °F 30.28 in Calm     87 % 0.00 in
03:16 37.0 °F 33.5 °F 30.28 in Calm     87 % 0.00 in
03:21 36.9 °F 33.4 °F 30.28 in Calm     87 % 0.00 in
03:26 36.8 °F 33.6 °F 30.28 in Calm     88 % 0.00 in
03:31 36.8 °F 33.6 °F 30.28 in Calm     88 % 0.00 in
03:36 36.8 °F 33.6 °F 30.28 in Calm     88 % 0.00 in
03:41 36.7 °F 33.5 °F 30.29 in Calm     88 % 0.00 in
03:46 36.6 °F 33.4 °F 30.29 in Calm     88 % 0.00 in
03:52 36.5 °F 33.3 °F 30.29 in Calm     88 % 0.00 in
03:57 36.4 °F 33.2 °F 30.29 in Calm     88 % 0.00 in
04:02 36.3 °F 33.1 °F 30.29 in Calm     88 % 0.00 in
04:12 36.1 °F 32.9 °F 30.29 in Calm     88 % 0.00 in
04:17 36.0 °F 33.1 °F 30.30 in Calm     89 % 0.00 in
04:22 35.9 °F 33.0 °F 30.29 in Calm     89 % 0.00 in
04:27 35.8 °F 32.9 °F 30.29 in SW 0.1 mph 1.0 mph 89 % 0.00 in
04:32 35.7 °F 32.8 °F 30.30 in SW 1.0 mph 2.3 mph 89 % 0.00 in
04:37 35.6 °F 32.7 °F 30.30 in Calm     89 % 0.00 in
04:43 35.6 °F 32.7 °F 30.29 in Calm     89 % 0.00 in
04:48 35.5 °F 32.6 °F 30.30 in Calm     89 % 0.00 in
04:53 35.5 °F 32.6 °F 30.30 in Calm     89 % 0.00 in
04:58 35.4 °F 32.5 °F 30.31 in Calm     89 % 0.00 in
05:08 35.3 °F 32.7 °F 30.31 in Calm   1.2 mph 90 % 0.00 in
05:13 35.3 °F 32.7 °F 30.31 in Calm     90 % 0.00 in
05:23 35.2 °F 32.6 °F 30.31 in Calm     90 % 0.00 in
05:28 35.2 °F 32.6 °F 30.31 in Calm     90 % 0.00 in
05:34 35.1 °F 32.5 °F 30.31 in Calm     90 % 0.00 in
05:39 35.0 °F 32.4 °F 30.31 in Calm     90 % 0.00 in
05:49 34.9 °F 32.3 °F 30.31 in Calm     90 % 0.00 in
05:54 34.8 °F 32.2 °F 30.32 in Calm     90 % 0.00 in
05:59 34.8 °F 32.2 °F 30.32 in Calm     90 % 0.00 in
06:04 34.8 °F 32.4 °F 30.32 in Calm     91 % 0.00 in
06:09 34.7 °F 32.3 °F 30.32 in Calm     91 % 0.00 in
06:14 34.7 °F 32.1 °F 30.32 in Calm     90 % 0.00 in
06:19 34.6 °F 32.0 °F 30.32 in Calm     90 % 0.00 in
06:25 34.6 °F 32.2 °F 30.33 in SW 0.2 mph   91 % 0.00 in
06:30 34.6 °F 32.2 °F 30.33 in Calm     91 % 0.00 in
06:35 34.7 °F 32.3 °F 30.33 in SW 0.3 mph 1.2 mph 91 % 0.00 in
06:40 34.8 °F 32.7 °F 30.34 in SW 0.2 mph 1.2 mph 92 % 0.00 in
06:45 35.0 °F 32.9 °F 30.34 in Calm     92 % 0.00 in
06:50 35.2 °F 33.1 °F 30.34 in Calm     92 % 0.00 in
06:55 35.3 °F 33.5 °F 30.34 in Calm     93 % 0.00 in
07:00 35.6 °F 33.8 °F 30.34 in Calm     93 % 0.00 in
07:05 35.9 °F 34.1 °F 30.34 in SW 0.1 mph 1.2 mph 93 % 0.00 in
07:10 36.3 °F 34.7 °F 30.34 in Calm   2.3 mph 94 % 0.00 in
07:16 36.9 °F 35.3 °F 30.35 in ENE 1.7 mph 3.5 mph 94 % 0.00 in
07:21 37.8 °F 36.5 °F 30.35 in ENE 4.3 mph 6.9 mph 95 % 0.00 in
07:26 39.3 °F 38.3 °F 30.35 in NE 1.6 mph 4.0 mph 96 % 0.00 in
07:31 40.0 °F 39.0 °F 30.35 in NNE 2.9 mph 5.8 mph 96 % 0.00 in
07:36 40.7 °F 39.6 °F 30.35 in NE 4.6 mph 6.9 mph 96 % 0.00 in
07:41 41.5 °F 40.4 °F 30.35 in ENE 2.9 mph 4.6 mph 96 % 0.00 in
07:46 42.0 °F 40.9 °F 30.35 in NE 3.1 mph 4.6 mph 96 % 0.00 in
07:51 42.5 °F 41.2 °F 30.35 in NNE 2.9 mph 7.0 mph 95 % 0.00 in
07:56 42.9 °F 41.3 °F 30.35 in ENE 4.4 mph 9.2 mph 94 % 0.00 in
08:01 43.3 °F 41.1 °F 30.35 in ENE 2.4 mph 3.5 mph 92 % 0.00 in
08:07 43.8 °F 41.1 °F 30.36 in NNE 3.2 mph 4.6 mph 90 % 0.00 in
08:12 44.2 °F 40.9 °F 30.36 in ENE 3.9 mph 7.0 mph 88 % 0.00 in
08:17 44.6 °F 40.4 °F 30.36 in ENE 2.0 mph 8.1 mph 85 % 0.00 in
08:22 44.9 °F 40.0 °F 30.36 in ENE 6.2 mph 9.2 mph 83 % 0.00 in
08:27 45.0 °F 39.2 °F 30.36 in NNE 5.8 mph 8.1 mph 80 % 0.00 in
08:32 45.2 °F 38.7 °F 30.36 in NE 5.6 mph 11.5 mph 78 % 0.00 in
08:37 45.4 °F 37.6 °F 30.36 in ENE 7.1 mph 10.4 mph 74 % 0.00 in
08:42 45.6 °F 35.6 °F 30.36 in ENE 8.5 mph 11.5 mph 68 % 0.00 in
08:47 45.8 °F 35.8 °F 30.36 in East 7.4 mph 9.2 mph 68 % 0.00 in
09:03 46.3 °F 34.0 °F 30.36 in ENE 9.3 mph 11.5 mph 62 % 0.00 in
09:08 46.2 °F 33.5 °F 30.36 in ENE 9.5 mph 11.5 mph 61 % 0.00 in
09:13 46.3 °F 34.4 °F 30.36 in ENE 9.0 mph 10.4 mph 63 % 0.00 in
09:18 46.7 °F 35.2 °F 30.36 in East 7.2 mph 9.2 mph 64 % 0.00 in
09:23 46.9 °F 35.7 °F 30.36 in ENE 4.2 mph 8.1 mph 65 % 0.00 in
09:28 47.2 °F 35.6 °F 30.36 in ENE 5.0 mph 8.1 mph 64 % 0.00 in
09:33 47.4 °F 35.4 °F 30.37 in ENE 5.8 mph 9.2 mph 63 % 0.00 in
09:38 47.8 °F 37.0 °F 30.37 in ENE 3.0 mph 6.9 mph 66 % 0.00 in
09:44 48.2 °F 36.6 °F 30.37 in ENE 5.8 mph 6.9 mph 64 % 0.00 in
09:49 48.2 °F 35.8 °F 30.36 in East 4.4 mph 6.0 mph 62 % 0.00 in
09:54 48.6 °F 36.6 °F 30.36 in ENE 5.9 mph 10.4 mph 63 % 0.00 in
09:59 48.8 °F 35.5 °F 30.37 in ENE 7.5 mph 10.4 mph 60 % 0.00 in
10:04 48.9 °F 35.6 °F 30.36 in ENE 5.9 mph 9.2 mph 60 % 0.00 in
10:09 49.3 °F 36.4 °F 30.37 in ENE 5.1 mph 6.0 mph 61 % 0.00 in
10:14 49.4 °F 36.1 °F 30.36 in ENE 4.7 mph 8.1 mph 60 % 0.00 in
10:19 49.4 °F 34.3 °F 30.37 in ENE 5.5 mph 9.2 mph 56 % 0.00 in
10:24 49.3 °F 36.0 °F 30.37 in ENE 4.6 mph 9.2 mph 60 % 0.00 in
10:29 49.6 °F 36.3 °F 30.37 in NE 5.1 mph 9.0 mph 60 % 0.00 in
10:35 49.7 °F 35.9 °F 30.36 in East 4.6 mph 6.9 mph 59 % 0.00 in
10:40 49.9 °F 36.1 °F 30.37 in ENE 4.6 mph 7.0 mph 59 % 0.00 in
10:45 50.6 °F 37.6 °F 30.36 in East 5.2 mph 8.1 mph 61 % 0.00 in
10:50 50.8 °F 36.1 °F 30.37 in East 6.2 mph 10.4 mph 57 % 0.00 in
10:55 50.8 °F 37.0 °F 30.37 in ENE 4.6 mph 8.1 mph 59 % 0.00 in
11:05 51.7 °F 36.5 °F 30.37 in East 4.3 mph 7.0 mph 56 % 0.00 in
11:10 51.4 °F 35.8 °F 30.37 in NE 5.2 mph 10.4 mph 55 % 0.00 in
11:15 51.4 °F 36.7 °F 30.37 in East 4.1 mph 5.8 mph 57 % 0.00 in
11:20 51.6 °F 37.3 °F 30.37 in East 3.8 mph 7.0 mph 58 % 0.00 in
11:26 51.6 °F 35.0 °F 30.37 in East 3.9 mph 8.1 mph 53 % 0.00 in
11:31 51.8 °F 35.7 °F 30.37 in East 2.9 mph 6.9 mph 54 % 0.00 in
11:36 51.9 °F 33.8 °F 30.36 in NE 3.7 mph 6.9 mph 50 % 0.00 in
11:41 52.4 °F 35.3 °F 30.36 in ENE 4.1 mph 7.0 mph 52 % 0.00 in
11:51 52.3 °F 35.2 °F 30.36 in NE 3.9 mph 6.9 mph 52 % 0.00 in
11:56 53.0 °F 34.8 °F 30.36 in ENE 4.8 mph 7.0 mph 50 % 0.00 in
12:01 53.3 °F 34.6 °F 30.36 in ENE 5.4 mph 7.0 mph 49 % 0.00 in
12:06 53.5 °F 33.2 °F 30.36 in ENE 4.8 mph 7.0 mph 46 % 0.00 in
12:11 53.7 °F 32.8 °F 30.36 in ENE 5.7 mph 9.0 mph 45 % 0.00 in
12:17 53.7 °F 33.4 °F 30.36 in NE 3.4 mph 6.9 mph 46 % 0.00 in
12:22 54.2 °F 32.7 °F 30.35 in ENE 2.3 mph 4.6 mph 44 % 0.00 in
12:27 54.5 °F 33.6 °F 30.35 in ENE 4.3 mph 6.9 mph 45 % 0.00 in
12:32 54.4 °F 31.8 °F 30.35 in ENE 3.1 mph 5.0 mph 42 % 0.00 in
12:37 54.6 °F 31.9 °F 30.35 in East 3.4 mph 5.8 mph 42 % 0.00 in
12:42 55.1 °F 33.6 °F 30.34 in NE 4.3 mph 6.9 mph 44 % 0.00 in
12:47 54.9 °F 31.0 °F 30.34 in NE 4.4 mph 8.1 mph 40 % 0.00 in
12:52 55.3 °F 33.7 °F 30.34 in NE 2.5 mph 4.6 mph 44 % 0.00 in
12:57 56.1 °F 33.3 °F 30.33 in NE 1.9 mph 6.9 mph 42 % 0.00 in
13:02 56.0 °F 32.0 °F 30.33 in NE 2.7 mph 4.6 mph 40 % 0.00 in
13:08 56.1 °F 32.7 °F 30.33 in NE 0.9 mph 3.5 mph 41 % 0.00 in
13:13 56.0 °F 33.2 °F 30.33 in ENE 3.2 mph 5.8 mph 42 % 0.00 in
13:23 56.0 °F 34.4 °F 30.33 in East 1.5 mph 5.0 mph 44 % 0.00 in
13:28 56.0 °F 31.4 °F 30.33 in ENE 3.8 mph 5.8 mph 39 % 0.00 in
13:33 55.8 °F 30.5 °F 30.33 in ENE 2.7 mph 4.6 mph 38 % 0.00 in
13:38 56.0 °F 32.6 °F 30.32 in ENE 1.2 mph 3.5 mph 41 % 0.00 in
13:43 56.6 °F 34.3 °F 30.32 in NE 2.3 mph 4.0 mph 43 % 0.00 in
13:48 57.0 °F 34.1 °F 30.32 in ENE 3.1 mph 5.0 mph 42 % 0.00 in
13:53 57.0 °F 31.6 °F 30.32 in ENE 3.1 mph 5.0 mph 38 % 0.00 in
13:59 57.1 °F 33.0 °F 30.32 in ENE 2.6 mph 4.6 mph 40 % 0.00 in
14:04 57.2 °F 33.7 °F 30.32 in NNE 2.6 mph 4.6 mph 41 % 0.00 in
14:09 57.3 °F 31.9 °F 30.32 in NNE 3.0 mph 4.0 mph 38 % 0.00 in
14:19 57.9 °F 31.1 °F 30.32 in ENE 2.7 mph 4.0 mph 36 % 0.00 in
14:24 58.1 °F 33.9 °F 30.31 in NNE 2.1 mph 5.8 mph 40 % 0.00 in
14:29 58.8 °F 34.5 °F 30.31 in NE 2.0 mph 3.5 mph 40 % 0.00 in
14:34 59.1 °F 32.8 °F 30.31 in NNE 3.0 mph 3.5 mph 37 % 0.00 in
14:39 59.5 °F 33.9 °F 30.31 in NNE 1.6 mph 4.6 mph 38 % 0.00 in
14:44 59.7 °F 34.0 °F 30.31 in NE 2.6 mph 4.0 mph 38 % 0.00 in
14:50 59.1 °F 30.0 °F 30.31 in ENE 1.5 mph 4.0 mph 33 % 0.00 in
14:55 58.4 °F 33.5 °F 30.31 in NE 1.7 mph 3.5 mph 39 % 0.00 in
15:00 58.2 °F 32.0 °F 30.31 in ENE 3.4 mph 7.0 mph 37 % 0.00 in
15:05 58.4 °F 32.2 °F 30.30 in East 2.9 mph 4.6 mph 37 % 0.00 in
15:10 58.1 °F 31.3 °F 30.30 in NE 3.3 mph 4.6 mph 36 % 0.00 in
15:15 58.2 °F 33.3 °F 30.30 in NNE 4.3 mph 5.8 mph 39 % 0.00 in
15:20 58.6 °F 33.7 °F 30.30 in NNE 2.4 mph 4.0 mph 39 % 0.00 in
15:25 58.6 °F 31.7 °F 30.30 in NE 2.6 mph 4.0 mph 36 % 0.00 in
15:30 58.4 °F 32.9 °F 30.29 in ENE 1.8 mph 3.5 mph 38 % 0.00 in
15:35 58.2 °F 30.7 °F 30.29 in ENE 1.4 mph 3.5 mph 35 % 0.00 in
15:41 58.0 °F 32.5 °F 30.29 in ENE 2.6 mph 3.5 mph 38 % 0.00 in
15:46 58.0 °F 30.5 °F 30.28 in NE 3.3 mph 5.0 mph 35 % 0.00 in
15:51 57.8 °F 30.3 °F 30.28 in ENE 3.2 mph 4.6 mph 35 % 0.00 in
15:56 57.8 °F 31.0 °F 30.28 in ENE 2.9 mph 3.5 mph 36 % 0.00 in
16:01 58.0 °F 31.8 °F 30.28 in ENE 3.7 mph 5.0 mph 37 % 0.00 in
16:06 58.1 °F 31.9 °F 30.28 in NE 1.9 mph 3.5 mph 37 % 0.00 in
16:11 58.3 °F 31.4 °F 30.27 in NE 3.1 mph 5.0 mph 36 % 0.00 in
16:16 58.4 °F 31.5 °F 30.27 in East 2.4 mph 3.5 mph 36 % 0.00 in
16:21 58.6 °F 31.7 °F 30.27 in ENE 4.3 mph 5.0 mph 36 % 0.00 in
16:26 58.6 °F 31.0 °F 30.27 in ENE 4.4 mph 7.0 mph 35 % 0.00 in
16:32 58.3 °F 30.0 °F 30.27 in NE 5.3 mph 8.1 mph 34 % 0.00 in
16:37 58.2 °F 30.7 °F 30.27 in ENE 3.0 mph 5.0 mph 35 % 0.00 in
16:42 58.2 °F 30.7 °F 30.27 in ENE 3.2 mph 6.9 mph 35 % 0.00 in
16:47 58.2 °F 30.7 °F 30.27 in East 5.2 mph 6.9 mph 35 % 0.00 in
16:52 58.2 °F 31.3 °F 30.27 in ENE 3.6 mph 5.8 mph 36 % 0.00 in
16:57 58.2 °F 30.7 °F 30.27 in ENE 6.6 mph 8.1 mph 35 % 0.00 in
17:02 58.2 °F 30.7 °F 30.27 in ENE 3.2 mph 6.9 mph 35 % 0.00 in
17:07 58.3 °F 29.3 °F 30.27 in ENE 2.9 mph 4.6 mph 33 % 0.00 in
17:12 58.4 °F 30.1 °F 30.27 in ENE 3.0 mph 6.9 mph 34 % 0.00 in
17:17 58.4 °F 31.5 °F 30.27 in ENE 3.9 mph 7.0 mph 36 % 0.00 in
17:23 58.5 °F 31.6 °F 30.27 in ENE 3.4 mph 4.6 mph 36 % 0.00 in
17:28 58.5 °F 30.2 °F 30.27 in East 3.0 mph 5.8 mph 34 % 0.00 in
17:38 58.5 °F 30.9 °F 30.27 in ENE 3.8 mph 5.8 mph 35 % 0.00 in
17:43 58.6 °F 31.0 °F 30.27 in East 5.1 mph 6.9 mph 35 % 0.00 in
17:48 58.5 °F 30.2 °F 30.27 in ENE 3.0 mph 5.8 mph 34 % 0.00 in
17:58 58.2 °F 29.9 °F 30.27 in SE 4.0 mph 5.8 mph 34 % 0.00 in
18:03 57.6 °F 35.8 °F 30.27 in South 6.1 mph 10.4 mph 44 % 0.00 in
18:08 57.0 °F 36.4 °F 30.27 in SSE 3.4 mph 5.0 mph 46 % 0.00 in
18:14 56.4 °F 35.9 °F 30.27 in SSE 3.7 mph 9.2 mph 46 % 0.00 in
18:19 55.8 °F 35.9 °F 30.27 in SSE 8.2 mph 11.5 mph 47 % 0.00 in
18:24 54.7 °F 36.4 °F 30.27 in SSE 9.9 mph 12.7 mph 50 % 0.00 in
18:29 54.0 °F 36.8 °F 30.27 in SSE 4.6 mph 8.1 mph 52 % 0.00 in
18:35 53.5 °F 36.8 °F 30.27 in South 5.0 mph 10.0 mph 53 % 0.00 in
18:41 53.0 °F 36.8 °F 30.28 in South 7.0 mph 11.0 mph 54 % 0.00 in
18:46 52.4 °F 36.7 °F 30.28 in SSW 2.3 mph 9.2 mph 55 % 0.00 in
18:51 52.3 °F 36.6 °F 30.28 in SSW 3.6 mph 8.0 mph 55 % 0.00 in
18:56 51.9 °F 36.7 °F 30.28 in SSW 1.9 mph 5.0 mph 56 % 0.00 in
19:02 51.4 °F 36.2 °F 30.28 in South 4.1 mph 4.6 mph 56 % 0.00 in
19:07 50.9 °F 36.2 °F 30.28 in SSE 5.5 mph 11.5 mph 57 % 0.00 in
19:12 50.3 °F 36.1 °F 30.28 in South 4.1 mph 8.1 mph 58 % 0.00 in
19:17 49.9 °F 35.7 °F 30.29 in South 4.5 mph 10.4 mph 58 % 0.00 in
19:22 49.4 °F 35.7 °F 30.29 in South 9.8 mph 17.3 mph 59 % 0.00 in
19:27 48.9 °F 35.6 °F 30.29 in SSE 4.6 mph 11.5 mph 60 % 0.00 in
19:32 48.5 °F 35.7 °F 30.29 in South 5.2 mph 8.1 mph 61 % 0.00 in
19:37 48.2 °F 35.0 °F 30.29 in SSE 5.2 mph 11.5 mph 60 % 0.00 in
19:42 47.9 °F 34.7 °F 30.30 in SSE 4.7 mph 6.9 mph 60 % 0.00 in
19:47 47.8 °F 34.2 °F 30.30 in South 2.6 mph 4.6 mph 59 % 0.00 in
19:53 47.6 °F 33.5 °F 30.30 in South 2.6 mph 5.8 mph 58 % 0.00 in
19:58 47.4 °F 33.4 °F 30.30 in South 6.3 mph 12.7 mph 58 % 0.00 in
20:03 47.3 °F 33.7 °F 30.30 in South 6.0 mph 8.1 mph 59 % 0.00 in
20:08 47.1 °F 33.9 °F 30.30 in SSE 5.0 mph 9.2 mph 60 % 0.00 in
20:18 46.9 °F 35.0 °F 30.31 in SE 6.3 mph 10.4 mph 63 % 0.00 in
20:23 46.7 °F 35.9 °F 30.31 in SSE 6.0 mph 13.8 mph 66 % 0.00 in
20:28 46.5 °F 36.1 °F 30.32 in South 2.0 mph 6.9 mph 67 % 0.00 in
20:33 46.3 °F 36.7 °F 30.32 in SSE 3.6 mph 9.2 mph 69 % 0.00 in
20:38 46.2 °F 37.0 °F 30.32 in SSE 7.3 mph 8.1 mph 70 % 0.00 in
20:44 46.0 °F 37.1 °F 30.33 in SSE 5.3 mph 11.5 mph 71 % 0.00 in
20:49 45.9 °F 37.4 °F 30.33 in South 3.5 mph 10.4 mph 72 % 0.00 in
20:54 45.8 °F 37.3 °F 30.34 in SE 6.3 mph 11.5 mph 72 % 0.00 in
20:59 45.7 °F 37.5 °F 30.34 in SSE 4.1 mph 6.9 mph 73 % 0.00 in
21:04 45.6 °F 37.4 °F 30.34 in South 3.0 mph 6.9 mph 73 % 0.00 in
21:09 45.4 °F 37.6 °F 30.34 in South 4.6 mph 6.0 mph 74 % 0.00 in
21:14 45.3 °F 37.5 °F 30.34 in SE 1.1 mph 5.8 mph 74 % 0.00 in
21:19 45.2 °F 37.4 °F 30.34 in South 2.9 mph 4.0 mph 74 % 0.00 in
21:24 45.1 °F 37.3 °F 30.35 in SSE 0.7 mph 3.5 mph 74 % 0.00 in
21:29 45.0 °F 37.2 °F 30.35 in SSE 1.0 mph 3.5 mph 74 % 0.00 in
21:40 44.8 °F 36.7 °F 30.36 in SSE 2.6 mph 3.0 mph 73 % 0.00 in
21:45 44.7 °F 36.6 °F 30.36 in SSE 2.2 mph 3.0 mph 73 % 0.00 in
21:50 44.5 °F 36.4 °F 30.36 in SE 1.0 mph 3.5 mph 73 % 0.00 in
21:55 44.4 °F 36.3 °F 30.36 in SSE 0.2 mph 2.0 mph 73 % 0.00 in
22:00 44.4 °F 35.9 °F 30.36 in Calm     72 % 0.00 in
22:05 44.3 °F 36.2 °F 30.36 in Calm     73 % 0.00 in
22:10 44.2 °F 36.1 °F 30.36 in Calm     73 % 0.00 in
22:15 44.0 °F 35.9 °F 30.37 in Calm     73 % 0.00 in
22:20 43.8 °F 35.7 °F 30.37 in Calm     73 % 0.00 in
22:26 43.6 °F 35.5 °F 30.37 in Calm   1.2 mph 73 % 0.00 in
22:31 43.4 °F 35.3 °F 30.37 in Calm     73 % 0.00 in
22:36 43.2 °F 35.1 °F 30.37 in SSE 0.2 mph 2.0 mph 73 % 0.00 in
22:41 43.1 °F 35.0 °F 30.36 in Calm     73 % 0.00 in
22:46 42.9 °F 34.8 °F 30.37 in Calm     73 % 0.00 in
22:51 42.7 °F 34.6 °F 30.37 in Calm     73 % 0.00 in
22:56 42.6 °F 34.5 °F 30.37 in Calm     73 % 0.00 in
23:01 42.4 °F 34.7 °F 30.37 in Calm     74 % 0.00 in
23:06 42.2 °F 34.5 °F 30.37 in Calm     74 % 0.00 in
23:11 42.0 °F 34.3 °F 30.37 in Calm     74 % 0.00 in
23:17 41.7 °F 34.4 °F 30.37 in Calm     75 % 0.00 in
23:22 41.5 °F 34.2 °F 30.37 in Calm   1.2 mph 75 % 0.00 in
23:27 41.3 °F 34.3 °F 30.37 in SSE 0.2 mph 2.3 mph 76 % 0.00 in
23:32 41.1 °F 34.1 °F 30.37 in Calm     76 % 0.00 in
23:37 40.9 °F 33.9 °F 30.37 in Calm     76 % 0.00 in
23:42 40.7 °F 33.7 °F 30.38 in Calm     76 % 0.00 in
23:47 40.6 °F 34.0 °F 30.38 in SSE 0.1 mph 1.2 mph 77 % 0.00 in
23:52 40.3 °F 34.0 °F 30.38 in Calm     78 % 0.00 in
23:57 40.1 °F 33.8 °F 30.38 in Calm     78 % 0.00 in
Crab Meadow Weather
Compliments of Weather Underground - 2.75 mb

Script developed by  Jim McMurry - jmcmurry@mwt.net Adapted for the template by  Wim van der Kuil - Leuven-Template.eu

Weather Terms: Sleet - Sleet or ice pellets are solid grains of ice formed from the freezing of rain or the refreezing of melted snow, which bounce off the ground and other objects.